| time (UTC) | temp F | wind direction | speed MPH | gust MPH | rain 1hr in | rain 24hr in | rain mn in | humidity % | barometer mb |
| 20260503032555 | 62 | 55 | 0.0 | 0.0 | 0.00 | 0.00 | 0.00 | 61 | 1019.8 |
| 20260503032054 | 62 | 55 | 0.0 | 0.0 | 0.00 | 0.00 | 0.00 | 61 | 1019.6 |
| 20260503031553 | 63 | 55 | 0.0 | 0.0 | 0.00 | 0.00 | 0.00 | 61 | 1019.7 |
| 20260503031053 | 63 | 55 | 0.0 | 0.0 | 0.00 | 0.00 | 0.00 | 60 | 1019.8 |
| 20260503030552 | 63 | 55 | 0.0 | 0.0 | 0.00 | 0.00 | 0.00 | 60 | 1019.7 |
| 20260503030055 | 63 | 55 | 0.0 | 0.0 | 0.00 | 0.00 | 0.00 | 60 | 1019.6 |
| 20260503025552 | 63 | 55 | 0.0 | 0.0 | 0.00 | 0.00 | 0.00 | 59 | 1019.5 |
| 20260503025052 | 64 | 55 | 0.0 | 0.0 | 0.00 | 0.00 | 0.00 | 58 | 1019.4 |
| 20260503024601 | 64 | 55 | 0.0 | 0.0 | 0.00 | 0.00 | 0.00 | 57 | 1019.3 |
| 20260503024052 | 64 | 55 | 0.0 | 0.0 | 0.00 | 0.00 | 0.00 | 57 | 1019.3 |
| 20260503023554 | 65 | 55 | 0.0 | 0.0 | 0.00 | 0.00 | 0.00 | 57 | 1019.3 |
| 20260503023052 | 65 | 55 | 0.0 | 0.0 | 0.00 | 0.00 | 0.00 | 56 | 1019.3 |
| 20260503022550 | 65 | 55 | 0.0 | 0.0 | 0.00 | 0.00 | 0.00 | 56 | 1019.2 |
| 20260503022050 | 66 | 55 | 0.0 | 1.0 | 0.00 | 0.00 | 0.00 | 55 | 1019.0 |
| 20260503021557 | 66 | 55 | 0.0 | 2.0 | 0.00 | 0.00 | 0.00 | 55 | 1018.9 |
| 20260503021053 | 66 | 55 | 0.0 | 2.0 | 0.00 | 0.00 | 0.00 | 54 | 1018.8 |
| 20260503020550 | 66 | 55 | 0.0 | 2.0 | 0.00 | 0.00 | 0.00 | 54 | 1018.7 |
| 20260503020055 | 67 | 55 | 0.0 | 2.0 | 0.00 | 0.00 | 0.00 | 54 | 1018.6 |
| 20260503015550 | 67 | 55 | 0.0 | 3.0 | 0.00 | 0.00 | 0.00 | 54 | 1018.5 |
| 20260503015049 | 67 | 55 | 1.0 | 4.0 | 0.00 | 0.00 | 0.00 | 53 | 1018.4 |
| 20260503014620 | 67 | 55 | 2.0 | 4.0 | 0.00 | 0.00 | 0.00 | 52 | 1018.4 |
| 20260503014050 | 67 | 67 | 1.0 | 6.0 | 0.00 | 0.00 | 0.00 | 52 | 1018.4 |
| 20260503013550 | 68 | 90 | 1.0 | 6.0 | 0.00 | 0.00 | 0.00 | 52 | 1018.4 |
| 20260503013049 | 68 | 84 | 2.0 | 4.0 | 0.00 | 0.00 | 0.00 | 51 | 1018.3 |
| 20260503012553 | 68 | 78 | 0.0 | 3.0 | 0.00 | 0.00 | 0.00 | 50 | 1018.4 |
| 20260503012048 | 69 | 59 | 1.0 | 4.0 | 0.00 | 0.00 | 0.00 | 50 | 1018.3 |
| 20260503011601 | 69 | 69 | 2.0 | 6.0 | 0.00 | 0.00 | 0.00 | 49 | 1018.3 |
| 20260503011048 | 69 | 93 | 3.0 | 8.0 | 0.00 | 0.00 | 0.00 | 48 | 1018.2 |
| 20260503010548 | 69 | 50 | 3.0 | 8.0 | 0.00 | 0.00 | 0.00 | 48 | 1018.1 |
| 20260503010054 | 70 | 77 | 3.0 | 10.0 | 0.00 | 0.00 | 0.00 | 47 | 1018.2 |
| 20260503005548 | 70 | 62 | 3.0 | 10.0 | 0.00 | 0.00 | 0.00 | 47 | 1018.2 |
| 20260503005048 | 70 | 9 | 4.0 | 9.0 | 0.00 | 0.00 | 0.00 | 46 | 1018.1 |
| 20260503004558 | 71 | 55 | 4.0 | 9.0 | 0.00 | 0.00 | 0.00 | 45 | 1018.0 |
| 20260503004047 | 71 | 82 | 3.0 | 11.0 | 0.00 | 0.00 | 0.00 | 45 | 1017.9 |
| 20260503003552 | 71 | 46 | 3.0 | 11.0 | 0.00 | 0.00 | 0.00 | 45 | 1017.8 |
| 20260503003047 | 71 | 61 | 5.0 | 12.0 | 0.00 | 0.00 | 0.00 | 44 | 1017.8 |
| 20260503002548 | 71 | 78 | 6.0 | 12.0 | 0.00 | 0.00 | 0.00 | 44 | 1017.8 |
| 20260503002046 | 72 | 37 | 3.0 | 10.0 | 0.00 | 0.00 | 0.00 | 44 | 1017.9 |
| 20260503001550 | 72 | 62 | 3.0 | 9.0 | 0.00 | 0.00 | 0.00 | 44 | 1018.0 |
| 20260503001045 | 72 | 80 | 4.0 | 10.0 | 0.00 | 0.00 | 0.00 | 43 | 1018.0 |
| 20260503000545 | 72 | 61 | 5.0 | 11.0 | 0.00 | 0.00 | 0.00 | 42 | 1018.0 |
| 20260503000045 | 72 | 43 | 5.0 | 11.0 | 0.00 | 0.00 | 0.00 | 42 | 1017.9 |
| 20260502235545 | 73 | 107 | 3.0 | 10.0 | 0.00 | 0.00 | 0.00 | 43 | 1018.0 |
| 20260502235045 | 73 | 57 | 4.0 | 12.0 | 0.00 | 0.00 | 0.00 | 41 | 1017.9 |
| 20260502234545 | 73 | 88 | 3.0 | 12.0 | 0.00 | 0.00 | 0.00 | 41 | 1017.9 |
| 20260502234049 | 73 | 34 | 4.0 | 11.0 | 0.00 | 0.00 | 0.00 | 42 | 1017.9 |
| 20260502233543 | 73 | 46 | 5.0 | 12.0 | 0.00 | 0.00 | 0.00 | 41 | 1017.8 |
| 20260502233046 | 73 | 63 | 3.0 | 10.0 | 0.00 | 0.00 | 0.00 | 41 | 1017.8 |
| 20260502232542 | 73 | 65 | 4.0 | 11.0 | 0.00 | 0.00 | 0.00 | 41 | 1017.9 |
| 20260502232042 | 74 | 36 | 4.0 | 11.0 | 0.00 | 0.00 | 0.00 | 41 | 1017.9 |
| 20260502231542 | 74 | 83 | 5.0 | 11.0 | 0.00 | 0.00 | 0.00 | 40 | 1017.9 |
| 20260502231042 | 74 | 59 | 4.0 | 11.0 | 0.00 | 0.00 | 0.00 | 40 | 1017.9 |
| 20260502230544 | 74 | 345 | 4.0 | 8.0 | 0.00 | 0.00 | 0.00 | 40 | 1017.9 |
| 20260502230041 | 74 | 72 | 1.0 | 11.0 | 0.00 | 0.00 | 0.00 | 40 | 1017.9 |
| 20260502225540 | 74 | 69 | 5.0 | 11.0 | 0.00 | 0.00 | 0.00 | 40 | 1017.8 |
| 20260502225040 | 74 | 34 | 3.0 | 12.0 | 0.00 | 0.00 | 0.00 | 41 | 1017.8 |
| 20260502224540 | 74 | 96 | 5.0 | 10.0 | 0.00 | 0.00 | 0.00 | 41 | 1017.8 |
| 20260502224040 | 74 | 70 | 4.0 | 10.0 | 0.00 | 0.00 | 0.00 | 40 | 1017.8 |
| 20260502223539 | 74 | 61 | 3.0 | 11.0 | 0.00 | 0.00 | 0.00 | 41 | 1017.7 |
| 20260502223043 | 74 | 101 | 3.0 | 11.0 | 0.00 | 0.00 | 0.00 | 40 | 1017.6 |
| 20260502222539 | 74 | 84 | 2.0 | 9.0 | 0.00 | 0.00 | 0.00 | 39 | 1017.7 |
| 20260502222039 | 75 | 69 | 4.0 | 11.0 | 0.00 | 0.00 | 0.00 | 40 | 1017.8 |
| 20260502221539 | 75 | 15 | 4.0 | 11.0 | 0.00 | 0.00 | 0.00 | 41 | 1017.9 |
| 20260502221038 | 75 | 53 | 3.0 | 9.0 | 0.00 | 0.00 | 0.00 | 41 | 1017.9 |
| 20260502220540 | 75 | 86 | 2.0 | 9.0 | 0.00 | 0.00 | 0.00 | 40 | 1017.9 |
| 20260502220038 | 75 | 360 | 4.0 | 13.0 | 0.00 | 0.00 | 0.00 | 39 | 1017.9 |
| 20260502215537 | 75 | 46 | 6.0 | 13.0 | 0.00 | 0.00 | 0.00 | 39 | 1017.9 |
| 20260502215040 | 75 | 55 | 6.0 | 12.0 | 0.00 | 0.00 | 0.00 | 38 | 1018.0 |
| 20260502214537 | 76 | 62 | 5.0 | 11.0 | 0.00 | 0.00 | 0.00 | 39 | 1018.0 |
| 20260502214037 | 75 | 5 | 2.0 | 12.0 | 0.00 | 0.00 | 0.00 | 38 | 1018.0 |
| 20260502213536 | 75 | 67 | 5.0 | 12.0 | 0.00 | 0.00 | 0.00 | 39 | 1018.1 |
| 20260502213036 | 75 | 355 | 4.0 | 10.0 | 0.00 | 0.00 | 0.00 | 40 | 1018.2 |
| 20260502212537 | 74 | 320 | 2.0 | 10.0 | 0.00 | 0.00 | 0.00 | 40 | 1018.2 |
| 20260502212035 | 75 | 84 | 5.0 | 10.0 | 0.00 | 0.00 | 0.00 | 40 | 1018.3 |
| 20260502211542 | 75 | 338 | 4.0 | 11.0 | 0.00 | 0.00 | 0.00 | 40 | 1018.4 |
| 20260502211034 | 75 | 345 | 5.0 | 11.0 | 0.00 | 0.00 | 0.00 | 38 | 1018.5 |
| 20260502210534 | 75 | 325 | 4.0 | 10.0 | 0.00 | 0.00 | 0.00 | 41 | 1018.6 |
| 20260502210038 | 76 | 34 | 2.0 | 12.0 | 0.00 | 0.00 | 0.00 | 41 | 1018.5 |
| 20260502205535 | 75 | 55 | 4.0 | 14.0 | 0.00 | 0.00 | 0.00 | 41 | 1018.6 |
| 20260502205033 | 74 | 87 | 4.0 | 14.0 | 0.00 | 0.00 | 0.00 | 42 | 1018.7 |
| 20260502204535 | 74 | 86 | 7.0 | 13.0 | 0.00 | 0.00 | 0.00 | 39 | 1018.8 |
| 20260502204032 | 74 | 70 | 4.0 | 15.0 | 0.00 | 0.00 | 0.00 | 41 | 1018.8 |
| 20260502203532 | 74 | 82 | 6.0 | 15.0 | 0.00 | 0.00 | 0.00 | 40 | 1018.8 |
| 20260502203031 | 74 | 322 | 5.0 | 10.0 | 0.00 | 0.00 | 0.00 | 38 | 1018.9 |
| 20260502202530 | 75 | 312 | 3.0 | 15.0 | 0.00 | 0.00 | 0.00 | 42 | 1019.0 |
| 20260502202030 | 75 | 84 | 5.0 | 13.0 | 0.00 | 0.00 | 0.00 | 42 | 1019.0 |
| 20260502201533 | 74 | 5 | 4.0 | 11.0 | 0.00 | 0.00 | 0.00 | 42 | 1019.0 |
| 20260502201031 | 74 | 69 | 5.0 | 11.0 | 0.00 | 0.00 | 0.00 | 40 | 1019.2 |
| 20260502200528 | 75 | 15 | 2.0 | 12.0 | 0.00 | 0.00 | 0.00 | 43 | 1019.2 |
| 20260502200027 | 74 | 26 | 6.0 | 12.0 | 0.00 | 0.00 | 0.00 | 43 | 1019.3 |
| 20260502195528 | 74 | 27 | 3.0 | 11.0 | 0.00 | 0.00 | 0.00 | 45 | 1019.3 |
| 20260502195027 | 73 | 42 | 5.0 | 11.0 | 0.00 | 0.00 | 0.00 | 44 | 1019.3 |
| 20260502194527 | 74 | 355 | 4.0 | 11.0 | 0.00 | 0.00 | 0.00 | 43 | 1019.3 |
| 20260502194026 | 73 | 31 | 3.0 | 9.0 | 0.00 | 0.00 | 0.00 | 46 | 1019.3 |
| 20260502193537 | 73 | 327 | 4.0 | 12.0 | 0.00 | 0.00 | 0.00 | 45 | 1019.4 |
| 20260502193025 | 73 | 298 | 6.0 | 14.0 | 0.00 | 0.00 | 0.00 | 46 | 1019.5 |
| 20260502192528 | 73 | 47 | 4.0 | 14.0 | 0.00 | 0.00 | 0.00 | 46 | 1019.5 |
| 20260502192024 | 73 | 79 | 5.0 | 13.0 | 0.00 | 0.00 | 0.00 | 46 | 1019.5 |
| 20260502191524 | 72 | 19 | 6.0 | 13.0 | 0.00 | 0.00 | 0.00 | 44 | 1019.5 |
| 20260502191023 | 72 | 98 | 7.0 | 13.0 | 0.00 | 0.00 | 0.00 | 45 | 1019.6 |
| 20260502190523 | 72 | 73 | 5.0 | 11.0 | 0.00 | 0.00 | 0.00 | 46 | 1019.5 |
| 20260502190031 | 72 | 77 | 7.0 | 13.0 | 0.00 | 0.00 | 0.00 | 45 | 1019.6 |
| 20260502185522 | 72 | 305 | 5.0 | 13.0 | 0.00 | 0.02 | 0.00 | 47 | 1019.7 |
| 20260502185022 | 71 | 23 | 5.0 | 14.0 | 0.00 | 0.02 | 0.00 | 45 | 1019.7 |
| 20260502184537 | 72 | 30 | 9.0 | 14.0 | 0.00 | 0.02 | 0.00 | 44 | 1019.9 |
| 20260502184022 | 72 | 129 | 4.0 | 15.0 | 0.00 | 0.02 | 0.00 | 47 | 1019.8 |
| 20260502183522 | 71 | 42 | 5.0 | 15.0 | 0.00 | 0.02 | 0.00 | 47 | 1020.0 |
| 20260502183036 | 71 | 49 | 6.0 | 12.0 | 0.00 | 0.02 | 0.00 | 47 | 1019.9 |
| 20260502182521 | 72 | 56 | 3.0 | 12.0 | 0.00 | 0.02 | 0.00 | 47 | 1020.0 |
| 20260502182020 | 73 | 73 | 2.0 | 14.0 | 0.00 | 0.02 | 0.00 | 47 | 1020.1 |
| 20260502181532 | 71 | 360 | 5.0 | 14.0 | 0.00 | 0.02 | 0.00 | 47 | 1020.2 |
| 20260502181018 | 70 | 37 | 6.0 | 14.0 | 0.00 | 0.02 | 0.00 | 46 | 1020.1 |
| 20260502180517 | 71 | 54 | 7.0 | 14.0 | 0.00 | 0.02 | 0.00 | 46 | 1020.2 |
| 20260502170505 | 68 | 20 | 9.0 | 16.0 | 0.00 | 0.12 | 0.00 | 48 | 1021.0 |
| 20260502164101 | 68 | 31 | 6.0 | 14.0 | 0.00 | 0.12 | 0.00 | 49 | 1021.2 |
| 20260502163558 | 68 | 26 | 5.0 | 14.0 | 0.00 | 0.12 | 0.00 | 50 | 1021.2 |
| 20260502163058 | 68 | 325 | 7.0 | 14.0 | 0.00 | 0.12 | 0.00 | 48 | 1021.3 |
| 20260502162555 | 68 | 339 | 5.0 | 13.0 | 0.00 | 0.12 | 0.00 | 51 | 1021.2 |
| 20260502162054 | 67 | 76 | 6.0 | 12.0 | 0.00 | 0.12 | 0.00 | 52 | 1021.2 |
| 20260502161553 | 67 | 55 | 6.0 | 12.0 | 0.00 | 0.12 | 0.00 | 51 | 1021.2 |
| 20260502161051 | 68 | 25 | 5.0 | 12.0 | 0.00 | 0.12 | 0.00 | 51 | 1021.2 |
| 20260502160549 | 68 | 19 | 5.0 | 12.0 | 0.00 | 0.12 | 0.00 | 52 | 1021.2 |
| 20260502152037 | 64 | 322 | 4.0 | 14.0 | 0.00 | 0.15 | 0.00 | 58 | 1020.9 |
| 20260502151542 | 64 | 343 | 6.0 | 16.0 | 0.00 | 0.15 | 0.00 | 59 | 1020.8 |
| 20260502151034 | 63 | 57 | 5.0 | 16.0 | 0.00 | 0.15 | 0.00 | 60 | 1020.8 |
| 20260502150532 | 63 | 339 | 4.0 | 11.0 | 0.00 | 0.15 | 0.00 | 62 | 1020.8 |
| 20260502130501 | 55 | 329 | 5.0 | 13.0 | 0.00 | 0.22 | 0.00 | 79 | 1019.4 |
| 20260502123557 | 53 | 336 | 5.0 | 10.0 | 0.00 | 0.23 | 0.00 | 83 | 1019.0 |
| 20260502123052 | 52 | 5 | 2.0 | 9.0 | 0.00 | 0.23 | 0.00 | 83 | 1018.8 |
| 20260502122553 | 52 | 355 | 2.0 | 11.0 | 0.00 | 0.23 | 0.00 | 84 | 1018.6 |
| 20260502122051 | 52 | 31 | 3.0 | 12.0 | 0.00 | 0.23 | 0.00 | 84 | 1018.6 |
| 20260502121548 | 51 | 30 | 4.0 | 12.0 | 0.00 | 0.23 | 0.00 | 84 | 1018.5 |
| 20260502121046 | 51 | 21 | 3.0 | 10.0 | 0.00 | 0.23 | 0.00 | 84 | 1018.5 |
| 20260502120546 | 51 | 325 | 4.0 | 11.0 | 0.00 | 0.23 | 0.00 | 84 | 1018.4 |
| 20260502115548 | 51 | 16 | 5.0 | 13.0 | 0.00 | 0.61 | 0.00 | 84 | 1018.2 |
| 20260502115043 | 51 | 55 | 4.0 | 12.0 | 0.00 | 0.61 | 0.00 | 84 | 1018.2 |
| 20260502114558 | 51 | 330 | 4.0 | 12.0 | 0.00 | 0.61 | 0.00 | 85 | 1018.2 |
| 20260502114042 | 51 | 320 | 4.0 | 12.0 | 0.00 | 0.61 | 0.00 | 85 | 1018.2 |
| 20260502113545 | 51 | 23 | 4.0 | 12.0 | 0.00 | 0.61 | 0.00 | 85 | 1018.1 |
| 20260502113043 | 51 | 9 | 3.0 | 10.0 | 0.00 | 0.61 | 0.00 | 85 | 1018.1 |
| 20260502112539 | 51 | 355 | 3.0 | 10.0 | 0.00 | 0.61 | 0.00 | 85 | 1018.1 |
| 20260502112039 | 51 | 42 | 3.0 | 10.0 | 0.00 | 0.61 | 0.00 | 85 | 1018.1 |
| 20260502111538 | 51 | 350 | 1.0 | 9.0 | 0.00 | 0.61 | 0.00 | 85 | 1018.1 |
| 20260502111039 | 51 | 333 | 2.0 | 9.0 | 0.00 | 0.61 | 0.00 | 85 | 1018.1 |
| 20260502110537 | 51 | 346 | 3.0 | 8.0 | 0.00 | 0.61 | 0.00 | 85 | 1017.9 |
| 20260502110039 | 51 | 355 | 2.0 | 9.0 | 0.00 | 0.61 | 0.00 | 85 | 1017.9 |
| 20260502105541 | 51 | 333 | 4.0 | 9.0 | 0.00 | 0.99 | 0.00 | 85 | 1017.9 |
| 20260502105036 | 51 | 294 | 2.0 | 8.0 | 0.00 | 0.99 | 0.00 | 85 | 1017.9 |
| 20260502104546 | 51 | 328 | 2.0 | 8.0 | 0.00 | 0.99 | 0.00 | 85 | 1017.9 |
| 20260502104035 | 51 | 325 | 2.0 | 10.0 | 0.00 | 0.99 | 0.00 | 85 | 1017.9 |
| 20260502103534 | 51 | 355 | 4.0 | 10.0 | 0.00 | 0.99 | 0.00 | 85 | 1017.8 |
| 20260502103035 | 51 | 323 | 2.0 | 6.0 | 0.00 | 0.99 | 0.00 | 85 | 1017.7 |
| 20260502102533 | 51 | 350 | 0.0 | 10.0 | 0.00 | 0.99 | 0.00 | 85 | 1017.7 |
| 20260502102032 | 51 | 338 | 3.0 | 10.0 | 0.00 | 0.99 | 0.00 | 85 | 1017.8 |
| 20260502101547 | 51 | 333 | 2.0 | 5.0 | 0.00 | 0.99 | 0.00 | 85 | 1017.6 |
| 20260502101031 | 51 | 355 | 1.0 | 5.0 | 0.00 | 0.99 | 0.00 | 85 | 1017.6 |
| 20260502100530 | 52 | 360 | 1.0 | 8.0 | 0.00 | 0.99 | 0.00 | 85 | 1017.5 |
| 20260502091525 | 52 | 320 | 0.0 | 5.0 | 0.00 | 1.58 | 0.00 | 86 | 1016.8 |
| 20260502091024 | 52 | 320 | 0.0 | 5.0 | 0.00 | 1.58 | 0.00 | 86 | 1016.8 |
| 20260502090523 | 52 | 342 | 0.0 | 4.0 | 0.00 | 1.58 | 0.00 | 86 | 1016.7 |
| 20260502071510 | 54 | 18 | 2.0 | 10.0 | 0.00 | 1.90 | 0.00 | 82 | 1015.8 |
| 20260502071014 | 54 | 39 | 3.0 | 10.0 | 0.00 | 1.90 | 0.00 | 82 | 1016.0 |
| 20260502070512 | 54 | 44 | 2.0 | 8.0 | 0.00 | 1.90 | 0.00 | 82 | 1016.1 |
| 20260502070011 | 54 | 338 | 2.0 | 7.0 | 0.00 | 1.90 | 0.00 | 82 | 1016.1 |
| 20260502065508 | 54 | 321 | 4.0 | 7.0 | 0.00 | 2.02 | 0.00 | 82 | 1016.1 |
| 20260502065007 | 54 | 5 | 4.0 | 11.0 | 0.00 | 2.02 | 0.00 | 82 | 1016.1 |
| 20260502064507 | 54 | 10 | 3.0 | 11.0 | 0.00 | 2.02 | 0.00 | 82 | 1016.1 |
| 20260502064006 | 54 | 351 | 4.0 | 9.0 | 0.00 | 2.02 | 0.00 | 81 | 1016.0 |
| 20260502063505 | 54 | 10 | 4.0 | 10.0 | 0.00 | 2.02 | 0.00 | 81 | 1016.0 |
| 20260502063005 | 54 | 9 | 3.0 | 10.0 | 0.00 | 2.02 | 0.00 | 81 | 1016.1 |
| 20260502062504 | 54 | 348 | 4.0 | 9.0 | 0.00 | 2.02 | 0.00 | 81 | 1016.0 |
| 20260502062004 | 54 | 351 | 2.0 | 10.0 | 0.00 | 2.02 | 0.00 | 81 | 1016.0 |
| 20260502061503 | 54 | 9 | 3.0 | 10.0 | 0.00 | 2.02 | 0.00 | 81 | 1016.0 |
| 20260502061104 | 54 | 360 | 4.0 | 12.0 | 0.00 | 2.02 | 0.00 | 81 | 1016.0 |
| 20260502060502 | 54 | 46 | 6.0 | 13.0 | 0.00 | 2.02 | 0.00 | 81 | 1015.9 |
| 20260502060008 | 54 | 342 | 4.0 | 12.0 | 0.00 | 2.02 | 0.00 | 81 | 1015.9 |
| 20260502055502 | 54 | 344 | 4.0 | 11.0 | 0.00 | 2.49 | 0.00 | 81 | 1015.8 |
| 20260502055105 | 54 | 339 | 4.0 | 13.0 | 0.00 | 2.49 | 0.00 | 80 | 1015.9 |
| 20260502054602 | 54 | 21 | 3.0 | 16.0 | 0.00 | 2.49 | 0.00 | 81 | 1015.8 |
| 20260502054059 | 54 | 24 | 7.0 | 16.0 | 0.00 | 2.49 | 0.00 | 80 | 1015.7 |
| 20260502053559 | 55 | 325 | 4.0 | 15.0 | 0.00 | 2.49 | 0.00 | 80 | 1015.3 |
| 20260502053057 | 55 | 65 | 7.0 | 15.0 | 0.00 | 2.49 | 0.00 | 80 | 1015.1 |
| 20260502052557 | 55 | 43 | 4.0 | 13.0 | 0.00 | 2.49 | 0.00 | 80 | 1015.1 |
| 20260502052101 | 55 | 11 | 6.0 | 13.0 | 0.00 | 2.49 | 0.00 | 79 | 1015.4 |
| 20260502051620 | 55 | 5 | 6.0 | 13.0 | 0.00 | 2.49 | 0.00 | 79 | 1016.0 |
| 20260502051054 | 55 | 338 | 4.0 | 19.0 | 0.00 | 2.49 | 0.00 | 79 | 1016.1 |
| 20260502050553 | 55 | 49 | 6.0 | 19.0 | 0.00 | 2.49 | 0.00 | 79 | 1016.0 |
| 20260502050052 | 55 | 28 | 6.0 | 15.0 | 0.00 | 2.49 | 0.00 | 79 | 1016.1 |
| 20260502045551 | 55 | 89 | 5.0 | 13.0 | 0.00 | 2.49 | 2.49 | 80 | 1016.0 |
| 20260502045050 | 55 | 331 | 4.0 | 12.0 | 0.00 | 2.49 | 2.49 | 80 | 1015.9 |
| 20260502044550 | 55 | 348 | 5.0 | 14.0 | 0.00 | 2.49 | 2.49 | 80 | 1015.8 |
| 20260502044050 | 55 | 355 | 6.0 | 17.0 | 0.00 | 2.49 | 2.49 | 80 | 1015.6 |
| 20260502043549 | 55 | 36 | 7.0 | 17.0 | 0.00 | 2.49 | 2.49 | 81 | 1015.6 |
| 20260502043051 | 55 | 61 | 5.0 | 16.0 | 0.00 | 2.49 | 2.49 | 81 | 1015.6 |
| 20260502042548 | 55 | 12 | 4.0 | 16.0 | 0.00 | 2.49 | 2.49 | 81 | 1015.7 |
| 20260502042047 | 55 | 50 | 6.0 | 16.0 | 0.00 | 2.49 | 2.49 | 81 | 1015.8 |
| 20260502041547 | 55 | 5 | 7.0 | 16.0 | 0.00 | 2.49 | 2.49 | 81 | 1015.8 |
| 20260502041047 | 55 | 330 | 4.0 | 14.0 | 0.00 | 2.49 | 2.49 | 81 | 1015.7 |
| 20260502040545 | 55 | 55 | 6.0 | 14.0 | 0.00 | 2.49 | 2.49 | 81 | 1015.7 |
| 20260502040054 | 55 | 315 | 3.0 | 14.0 | 0.00 | 2.49 | 2.49 | 81 | 1015.7 |
| 20260502035545 | 55 | 9 | 7.0 | 14.0 | 0.00 | 2.50 | 2.49 | 81 | 1015.6 |
| 20260502035045 | 55 | 350 | 4.0 | 13.0 | 0.00 | 2.50 | 2.49 | 81 | 1015.7 |
| 20260502034544 | 55 | 19 | 5.0 | 13.0 | 0.00 | 2.50 | 2.49 | 82 | 1015.6 |
| 20260502034046 | 55 | 40 | 6.0 | 15.0 | 0.00 | 2.50 | 2.49 | 82 | 1015.5 |
| 20260502033542 | 55 | 13 | 6.0 | 15.0 | 0.00 | 2.50 | 2.49 | 83 | 1015.4 |
| 20260502033043 | 55 | 49 | 8.0 | 15.0 | 0.00 | 2.50 | 2.49 | 83 | 1015.4 |